�搅�E���B���j�^�v������
Date,Time,�搅(cps),���B(cps),���J
2023/09/24,00:00,6.9,-,��
2023/09/24,00:10,6.9,-,��
2023/09/24,00:20,6.8,-,��
2023/09/24,00:30,7.0,-,��
2023/09/24,00:40,6.9,-,��
2023/09/24,00:50,7.0,-,��
2023/09/24,01:00,7.0,-,��
2023/09/24,01:10,6.9,-,��
2023/09/24,01:20,6.9,-,��
2023/09/24,01:30,6.8,-,��
2023/09/24,01:40,7.1,-,��
2023/09/24,01:50,7.0,-,��
2023/09/24,02:00,6.9,-,��
2023/09/24,02:10,7.0,-,��
2023/09/24,02:20,6.9,-,��
2023/09/24,02:30,6.9,-,��
2023/09/24,02:40,7.1,-,��
2023/09/24,02:50,7.1,-,��
2023/09/24,03:00,7.0,-,��
2023/09/24,03:10,7.0,-,��
2023/09/24,03:20,7.0,-,��
2023/09/24,03:30,7.1,-,��
2023/09/24,03:40,7.1,-,��
2023/09/24,03:50,7.1,-,��
2023/09/24,04:00,7.1,-,��
2023/09/24,04:10,7.1,-,��
2023/09/24,04:20,7.0,-,��
2023/09/24,04:30,7.1,-,��
2023/09/24,04:40,7.2,-,��
2023/09/24,04:50,7.1,-,��
2023/09/24,05:00,7.1,-,��
2023/09/24,05:10,7.1,-,��
2023/09/24,05:20,7.0,-,��
2023/09/24,05:30,7.0,-,��
2023/09/24,05:40,7.0,-,��
2023/09/24,05:50,7.1,-,��
2023/09/24,06:00,7.1,-,��
2023/09/24,06:10,7.2,-,��
2023/09/24,06:20,7.2,-,��
2023/09/24,06:30,7.1,-,��
2023/09/24,06:40,7.0,-,��
2023/09/24,06:50,7.1,-,��
2023/09/24,07:00,7.2,-,��
2023/09/24,07:10,7.0,-,��
2023/09/24,07:20,7.1,-,��
2023/09/24,07:30,7.3,-,��
2023/09/24,07:40,7.2,-,��
2023/09/24,07:50,7.3,-,��
2023/09/24,08:00,7.2,-,��
2023/09/24,08:10,7.4,-,��
2023/09/24,08:20,7.3,-,��
2023/09/24,08:30,7.1,-,��
2023/09/24,08:40,7.2,-,��
2023/09/24,08:50,7.2,-,��
2023/09/24,09:00,7.2,-,��
2023/09/24,09:10,7.3,-,��
2023/09/24,09:20,7.2,-,��
2023/09/24,09:30,7.3,-,��
2023/09/24,09:40,7.1,-,��
2023/09/24,09:50,7.2,-,��
2023/09/24,10:00,7.2,-,��
2023/09/24,10:10,7.2,-,��
2023/09/24,10:20,7.3,-,��
2023/09/24,10:30,7.3,-,��
2023/09/24,10:40,7.3,-,��
2023/09/24,10:50,7.4,-,��
2023/09/24,11:00,7.4,-,��
2023/09/24,11:10,7.4,-,��
2023/09/24,11:20,7.5,-,��
2023/09/24,11:30,7.5,-,��
2023/09/24,11:40,7.3,-,��
2023/09/24,11:50,7.4,-,��
2023/09/24,12:00,7.4,-,�L
2023/09/24,12:10,7.3,-,�L
2023/09/24,12:20,7.3,-,��
2023/09/24,12:30,7.6,-,��
2023/09/24,12:40,7.3,-,��
2023/09/24,12:50,7.5,-,��
2023/09/24,13:00,7.3,-,��
2023/09/24,13:10,7.2,-,��
2023/09/24,13:20,7.3,-,��
2023/09/24,13:30,7.3,-,��
2023/09/24,13:40,7.4,-,��
2023/09/24,13:50,7.3,-,��
2023/09/24,14:00,7.2,-,��
2023/09/24,14:10,7.2,-,��
2023/09/24,14:20,7.4,-,��
2023/09/24,14:30,7.3,-,��
2023/09/24,14:40,7.3,-,��
2023/09/24,14:50,7.2,-,��
2023/09/24,15:00,7.2,-,��
2023/09/24,15:10,7.2,-,��
2023/09/24,15:20,7.2,-,��
2023/09/24,15:30,7.3,-,��
2023/09/24,15:40,7.0,-,��
2023/09/24,15:50,7.1,-,��
2023/09/24,16:00,7.1,-,��
2023/09/24,16:10,7.3,-,��
2023/09/24,16:20,7.1,-,��
2023/09/24,16:30,6.9,-,��
2023/09/24,16:40,7.1,-,��
2023/09/24,16:50,7.0,-,��
2023/09/24,17:00,6.9,-,��
2023/09/24,17:10,6.8,-,��
2023/09/24,17:20,7.0,-,��
2023/09/24,17:30,7.1,-,��
2023/09/24,17:40,7.1,-,��
2023/09/24,17:50,7.1,-,��
2023/09/24,18:00,7.0,-,��
2023/09/24,18:10,7.0,-,��
2023/09/24,18:20,6.9,-,��
2023/09/24,18:30,6.9,-,��
2023/09/24,18:40,7.2,-,��
2023/09/24,18:50,7.0,-,��
2023/09/24,19:00,6.9,-,��
2023/09/24,19:10,7.0,-,��
2023/09/24,19:20,7.2,-,��
2023/09/24,19:30,6.9,-,��
2023/09/24,19:40,7.0,-,��
2023/09/24,19:50,6.9,-,��
2023/09/24,20:00,7.0,-,��
2023/09/24,20:10,6.9,-,��
2023/09/24,20:20,7.0,-,��
2023/09/24,20:30,7.1,-,��
2023/09/24,20:40,7.1,-,��
2023/09/24,20:50,7.3,-,��
2023/09/24,21:00,7.2,-,��
2023/09/24,21:10,7.2,-,��
2023/09/24,21:20,7.3,-,��
2023/09/24,21:30,7.1,-,��
2023/09/24,21:40,7.0,-,��
2023/09/24,21:50,7.0,-,��
2023/09/24,22:00,7.0,-,��
2023/09/24,22:10,6.9,-,��
2023/09/24,22:20,7.0,-,��
2023/09/24,22:30,7.0,-,��
2023/09/24,22:40,6.9,-,��
2023/09/24,22:50,7.1,-,��
2023/09/24,23:00,7.0,-,��
2023/09/24,23:10,7.2,-,��
2023/09/24,23:20,7.2,-,��
2023/09/24,23:30,7.1,-,��
2023/09/24,23:40,7.1,-,��
2023/09/24,23:50,6.9,-,��
